Time,TemperatureF,DewpointF,PressureIn,WindDirection,WindDirectionDegrees,WindSpeedMPH,WindSpeedGustMPH,Humidity,HourlyPrecipIn,Conditions,Clouds,dailyrainin,SoftwareType,DateUTC
2013-10-20 00:11:00,49.3,40.7,29.84,SSW,196,2.0,6.0,72,0.00,,---,0.00,VWS V14.01,2013-10-20 05:11:00,
2013-10-20 00:26:00,49.1,40.8,29.83,South,190,4.0,7.0,73,0.00,,---,0.00,VWS V14.01,2013-10-20 05:26:00,
2013-10-20 00:41:00,49.1,40.8,29.83,SSW,199,3.0,8.0,73,0.00,,---,0.00,VWS V14.01,2013-10-20 05:41:00,
2013-10-20 00:56:00,48.9,41.0,29.83,South,186,4.0,8.0,74,0.00,,---,0.00,VWS V14.01,2013-10-20 05:56:00,
2013-10-20 01:11:00,48.9,41.0,29.82,South,190,4.0,11.0,74,0.00,,---,0.00,VWS V14.01,2013-10-20 06:11:00,
2013-10-20 01:26:00,48.7,41.1,29.82,SSW,195,3.0,7.0,75,0.00,,---,0.00,VWS V14.01,2013-10-20 06:26:00,
2013-10-20 01:41:00,48.7,41.1,29.82,South,188,4.0,9.0,75,0.00,,---,0.00,VWS V14.01,2013-10-20 06:41:00,
2013-10-20 01:56:00,48.7,41.5,29.82,SSW,192,3.0,9.0,76,0.00,,---,0.00,VWS V14.01,2013-10-20 06:56:00,
2013-10-20 02:11:00,48.6,41.4,29.82,South,185,5.0,10.0,76,0.00,,---,0.00,VWS V14.01,2013-10-20 07:11:00,
2013-10-20 02:26:00,48.4,41.5,29.82,SSW,192,2.0,9.0,77,0.00,,---,0.00,VWS V14.01,2013-10-20 07:26:00,
2013-10-20 02:41:00,48.2,41.7,29.82,South,182,6.0,9.0,78,0.00,,---,0.00,VWS V14.01,2013-10-20 07:41:00,
2013-10-20 02:56:00,48.2,42.0,29.81,South,191,3.0,9.0,79,0.00,,---,0.00,VWS V14.01,2013-10-20 07:56:00,
2013-10-20 03:11:00,48.1,41.9,29.81,South,178,4.0,10.0,79,0.00,,---,0.00,VWS V14.01,2013-10-20 08:11:00,
2013-10-20 03:26:00,47.8,41.9,29.80,South,180,3.0,9.0,80,0.00,,---,0.00,VWS V14.01,2013-10-20 08:26:00,
2013-10-20 03:41:00,47.7,41.8,29.79,SSW,192,4.0,10.0,80,0.00,,---,0.00,VWS V14.01,2013-10-20 08:41:00,
2013-10-20 03:56:00,47.5,42.0,29.79,South,186,3.0,11.0,81,0.00,,---,0.00,VWS V14.01,2013-10-20 08:56:00,
2013-10-20 04:11:00,47.4,41.9,29.78,South,178,6.0,9.0,81,0.00,,---,0.00,VWS V14.01,2013-10-20 09:11:00,
2013-10-20 04:26:00,47.4,41.9,29.78,South,191,6.0,10.0,81,0.00,,---,0.00,VWS V14.01,2013-10-20 09:26:00,
2013-10-20 04:41:00,47.3,42.1,29.78,SSW,198,7.0,11.0,82,0.00,,---,0.00,VWS V14.01,2013-10-20 09:41:00,
2013-10-20 04:56:00,47.0,41.8,29.78,South,176,2.0,10.0,82,0.00,,---,0.00,VWS V14.01,2013-10-20 09:56:00,
2013-10-20 05:11:00,46.9,42.0,29.79,SSW,203,3.0,9.0,83,0.00,,---,0.00,VWS V14.01,2013-10-20 10:11:00,
2013-10-20 05:26:00,46.7,41.8,29.78,SSW,196,3.0,8.0,83,0.00,,---,0.00,VWS V14.01,2013-10-20 10:26:00,
2013-10-20 05:41:00,46.4,41.8,29.78,South,186,2.0,8.0,84,0.00,,---,0.00,VWS V14.01,2013-10-20 10:41:00,
2013-10-20 05:56:00,46.1,41.5,29.78,SSW,198,6.0,9.0,84,0.00,,---,0.00,VWS V14.01,2013-10-20 10:56:00,
2013-10-20 06:11:00,46.0,41.4,29.78,South,186,4.0,10.0,84,0.00,,---,0.00,VWS V14.01,2013-10-20 11:11:00,
2013-10-20 06:26:00,45.7,41.2,29.78,SSW,195,6.0,9.0,84,0.00,,---,0.00,VWS V14.01,2013-10-20 11:26:00,
2013-10-20 06:41:00,45.5,41.3,29.78,South,188,3.0,9.0,85,0.00,,---,0.00,VWS V14.01,2013-10-20 11:41:00,
2013-10-20 06:56:00,45.4,40.9,29.77,South,188,3.0,10.0,84,0.00,,---,0.00,VWS V14.01,2013-10-20 11:56:00,
2013-10-20 07:11:00,45.4,41.2,29.77,SSW,192,3.0,11.0,85,0.00,,---,0.00,VWS V14.01,2013-10-20 12:11:00,
2013-10-20 07:26:00,45.3,40.8,29.77,SSE,166,1.0,11.0,84,0.00,,---,0.00,VWS V14.01,2013-10-20 12:26:00,
2013-10-20 07:41:00,45.2,40.7,29.77,SSW,200,8.0,12.0,84,0.00,,---,0.00,VWS V14.01,2013-10-20 12:41:00,
2013-10-20 07:56:00,45.3,40.8,29.77,SSW,211,7.0,13.0,84,0.00,,---,0.00,VWS V14.01,2013-10-20 12:56:00,
2013-10-20 08:11:00,45.5,40.7,29.77,South,185,6.0,11.0,83,0.00,,---,0.00,VWS V14.01,2013-10-20 13:11:00,
2013-10-20 08:26:00,46.4,41.2,29.77,South,191,7.0,12.0,82,0.00,,---,0.00,VWS V14.01,2013-10-20 13:26:00,
2013-10-20 08:41:00,47.7,41.5,29.78,SSW,192,7.0,13.0,79,0.00,,---,0.00,VWS V14.01,2013-10-20 13:41:00,
2013-10-20 08:56:00,49.1,41.9,29.78,South,186,5.0,14.0,76,0.00,,---,0.00,VWS V14.01,2013-10-20 13:56:00,
2013-10-20 09:11:00,50.2,42.2,29.79,South,188,6.0,14.0,74,0.00,,---,0.00,VWS V14.01,2013-10-20 14:11:00,
2013-10-20 09:26:00,51.7,42.6,29.78,South,188,7.0,15.0,71,0.00,,---,0.00,VWS V14.01,2013-10-20 14:26:00,
2013-10-20 09:41:00,53.2,42.2,29.78,South,185,9.0,17.0,66,0.00,,---,0.00,VWS V14.01,2013-10-20 14:41:00,
2013-10-20 09:56:00,53.5,42.0,29.78,SW,221,10.0,16.0,65,0.00,,---,0.00,VWS V14.01,2013-10-20 14:56:00,
2013-10-20 10:11:00,54.7,42.4,29.78,South,184,10.0,16.0,63,0.00,,---,0.00,VWS V14.01,2013-10-20 15:11:00,
2013-10-20 10:26:00,55.8,43.4,29.78,SSW,202,8.0,14.0,63,0.00,,---,0.00,VWS V14.01,2013-10-20 15:26:00,
2013-10-20 10:41:00,56.3,43.0,29.78,SSW,202,9.0,16.0,61,0.00,,---,0.00,VWS V14.01,2013-10-20 15:41:00,
2013-10-20 10:56:00,57.3,43.5,29.78,SSW,209,8.0,15.0,60,0.00,,---,0.00,VWS V14.01,2013-10-20 15:56:00,
2013-10-20 11:11:00,58.6,43.9,29.77,SSE,167,10.0,16.0,58,0.00,,---,0.00,VWS V14.01,2013-10-20 16:11:00,
2013-10-20 11:26:00,58.7,43.5,29.78,SW,223,5.0,15.0,57,0.00,,---,0.00,VWS V14.01,2013-10-20 16:26:00,
2013-10-20 11:41:00,59.2,43.5,29.78,WSW,250,4.0,15.0,56,0.00,,---,0.00,VWS V14.01,2013-10-20 16:41:00,
2013-10-20 11:56:00,60.2,44.5,29.78,SW,231,7.0,12.0,56,0.00,,---,0.00,VWS V14.01,2013-10-20 16:56:00,
2013-10-20 12:11:00,60.7,44.0,29.77,SW,216,4.0,13.0,54,0.00,,---,0.00,VWS V14.01,2013-10-20 17:11:00,
2013-10-20 12:26:00,60.8,44.5,29.78,SSW,203,10.0,15.0,55,0.00,,---,0.00,VWS V14.01,2013-10-20 17:26:00,
2013-10-20 12:41:00,62.1,44.3,29.77,SW,222,7.0,16.0,52,0.00,,---,0.00,VWS V14.01,2013-10-20 17:41:00,
2013-10-20 12:56:00,62.8,44.4,29.77,SSW,203,4.0,18.0,51,0.00,,---,0.00,VWS V14.01,2013-10-20 17:56:00,
2013-10-20 13:11:00,62.8,45.4,29.77,SSW,213,2.0,16.0,53,0.00,,---,0.00,VWS V14.01,2013-10-20 18:11:00,
2013-10-20 13:26:00,63.5,45.1,29.76,South,190,4.0,12.0,51,0.00,,---,0.00,VWS V14.01,2013-10-20 18:26:00,
2013-10-20 13:41:00,65.1,44.4,29.76,SSW,200,7.0,16.0,47,0.00,,---,0.00,VWS V14.01,2013-10-20 18:41:00,
2013-10-20 13:56:00,66.1,44.7,29.75,WSW,251,4.0,18.0,46,0.00,,---,0.00,VWS V14.01,2013-10-20 18:56:00,
2013-10-20 14:11:00,66.0,44.1,29.75,WSW,256,8.0,14.0,45,0.00,,---,0.00,VWS V14.01,2013-10-20 19:11:00,
2013-10-20 14:26:00,66.3,44.3,29.75,SSW,195,10.0,14.0,45,0.00,,---,0.00,VWS V14.01,2013-10-20 19:26:00,
2013-10-20 14:41:00,66.7,44.7,29.75,SW,221,5.0,14.0,45,0.00,,---,0.00,VWS V14.01,2013-10-20 19:41:00,
2013-10-20 14:56:00,66.6,45.2,29.74,South,187,5.0,11.0,46,0.00,,---,0.00,VWS V14.01,2013-10-20 19:56:00,
2013-10-20 15:11:00,67.6,45.5,29.74,SSW,213,8.0,15.0,45,0.00,,---,0.00,VWS V14.01,2013-10-20 20:11:00,
2013-10-20 15:26:00,68.2,46.7,29.74,South,186,6.0,12.0,46,0.00,,---,0.00,VWS V14.01,2013-10-20 20:26:00,
2013-10-20 15:41:00,68.7,45.9,29.74,South,177,4.0,11.0,44,0.00,,---,0.00,VWS V14.01,2013-10-20 20:41:00,
2013-10-20 15:56:00,68.9,46.7,29.74,SSW,202,4.0,11.0,45,0.00,,---,0.00,VWS V14.01,2013-10-20 20:56:00,
2013-10-20 16:11:00,69.6,47.3,29.73,SW,230,1.0,10.0,45,0.00,,---,0.00,VWS V14.01,2013-10-20 21:11:00,
2013-10-20 16:26:00,70.0,47.7,29.74,West,279,2.0,8.0,45,0.00,,---,0.00,VWS V14.01,2013-10-20 21:26:00,
2013-10-20 16:41:00,70.1,46.0,29.74,WSW,248,9.0,15.0,42,0.00,,---,0.00,VWS V14.01,2013-10-20 21:41:00,
2013-10-20 16:56:00,69.6,46.1,29.74,NW,309,5.0,11.0,43,0.00,,---,0.00,VWS V14.01,2013-10-20 21:56:00,
2013-10-20 17:11:00,67.3,45.2,29.75,NNW,347,6.0,10.0,45,0.00,,---,0.00,VWS V14.01,2013-10-20 22:11:00,
2013-10-20 17:26:00,65.6,45.4,29.75,NNW,344,4.0,7.0,48,0.00,,---,0.00,VWS V14.01,2013-10-20 22:26:00,
2013-10-20 17:41:00,64.8,45.7,29.75,NNW,344,3.0,5.0,50,0.00,,---,0.00,VWS V14.01,2013-10-20 22:41:00,
2013-10-20 17:56:00,63.9,45.4,29.76,NNW,343,0.0,5.0,51,0.00,,---,0.00,VWS V14.01,2013-10-20 22:56:00,
2013-10-20 18:11:00,63.1,45.2,29.76,NNW,339,0.0,5.0,52,0.00,,---,0.00,VWS V14.01,2013-10-20 23:11:00,
2013-10-20 18:26:00,62.3,45.0,29.77,NNW,339,0.0,3.0,53,0.00,,---,0.00,VWS V14.01,2013-10-20 23:26:00,
2013-10-20 18:41:00,61.8,45.0,29.78,NNW,338,2.0,5.0,54,0.00,,---,0.00,VWS V14.01,2013-10-20 23:41:00,
2013-10-20 18:56:00,61.1,44.8,29.78,NNW,338,0.0,5.0,55,0.00,,---,0.00,VWS V14.01,2013-10-20 23:56:00,
2013-10-20 19:11:00,60.8,45.0,29.80,NNW,328,4.0,6.0,56,0.00,,---,0.00,VWS V14.01,2013-10-21 00:11:00,
2013-10-20 19:26:00,60.5,44.7,29.80,NNW,327,3.0,6.0,56,0.00,,---,0.00,VWS V14.01,2013-10-21 00:26:00,
2013-10-20 19:41:00,60.2,44.9,29.80,NW,324,1.0,6.0,57,0.00,,---,0.00,VWS V14.01,2013-10-21 00:41:00,
2013-10-20 19:56:00,59.6,45.3,29.81,NW,323,3.0,5.0,59,0.00,,---,0.00,VWS V14.01,2013-10-21 00:56:00,
2013-10-20 20:11:00,59.1,44.8,29.82,NW,323,1.0,6.0,59,0.00,,---,0.00,VWS V14.01,2013-10-21 01:11:00,
2013-10-20 20:26:00,58.6,44.3,29.82,NW,323,0.0,4.0,59,0.00,,---,0.00,VWS V14.01,2013-10-21 01:26:00,
2013-10-20 20:41:00,58.3,44.0,29.82,NW,323,0.0,3.0,59,0.00,,---,0.00,VWS V14.01,2013-10-21 01:41:00,
2013-10-20 20:56:00,58.0,44.2,29.83,NW,323,1.0,3.0,60,0.00,,---,0.00,VWS V14.01,2013-10-21 01:56:00,
2013-10-20 21:11:00,57.7,43.9,29.83,NW,323,0.0,3.0,60,0.00,,---,0.00,VWS V14.01,2013-10-21 02:11:00,
2013-10-20 21:26:00,57.5,44.2,29.83,NW,323,0.0,3.0,61,0.00,,---,0.00,VWS V14.01,2013-10-21 02:26:00,
2013-10-20 21:41:00,57.1,44.2,29.84,NW,323,0.0,2.0,62,0.00,,---,0.00,VWS V14.01,2013-10-21 02:41:00,
2013-10-20 21:56:00,56.8,44.3,29.85,NW,323,0.0,2.0,63,0.00,,---,0.00,VWS V14.01,2013-10-21 02:56:00,
2013-10-20 22:11:00,56.5,44.5,29.85,NW,323,1.0,2.0,64,0.00,,---,0.00,VWS V14.01,2013-10-21 03:11:00,
2013-10-20 22:26:00,56.3,44.7,29.86,NW,323,0.0,2.0,65,0.00,,---,0.00,VWS V14.01,2013-10-21 03:26:00,
2013-10-20 22:41:00,55.7,44.9,29.87,NW,323,3.0,6.0,67,0.00,,---,0.00,VWS V14.01,2013-10-21 03:41:00,
2013-10-20 22:56:00,56.3,44.7,29.88,NW,325,3.0,7.0,65,0.00,,---,0.00,VWS V14.01,2013-10-21 03:56:00,
2013-10-20 23:11:00,56.6,43.8,29.88,NNW,348,4.0,14.0,62,0.00,,---,0.00,VWS V14.01,2013-10-21 04:11:00,
2013-10-20 23:26:00,56.2,42.5,29.89,NNW,342,6.0,14.0,60,0.00,,---,0.00,VWS V14.01,2013-10-21 04:26:00,
2013-10-20 23:41:00,55.7,42.0,29.89,NNW,342,2.0,17.0,60,0.00,,---,0.00,VWS V14.01,2013-10-21 04:41:00,
2013-10-20 23:56:00,55.2,41.1,29.90,NNW,333,9.0,14.0,59,0.00,,---,0.00,VWS V14.01,2013-10-21 04:56:00,